Theta_e
317 322 324 321 320 318 316 316 314 313 314 314 311 310 312 311 311 311 311 311 311 311 311 310 309 308 313 322 321 318 311 313 312 316 317 316 317 318 317 317 318 319 320 320 324 325 322
313 316 320 324 321 319 316 316 314 313 314 314 311 310 312 312 312 311 311 311 311 310 311 309 309 308 317 321 317 321 316 314 316 317 316 316 317 317 318 319 320 320 320 319 321 324 326
309 313 315 321 324 320 318 316 314 313 313 314 311 310 312 312 311 311 310 310 311 311 310 308 307 311 318 321 317 321 317 316 317 316 318 318 318 318 320 320 320 319 318 317 319 323 324
308 308 313 315 322 323 319 316 315 314 313 313 311 310 312 312 311 311 311 310 310 310 309 308 307 314 321 318 318 320 320 320 319 317 318 319 319 319 320 320 318 318 318 319 318 322 323
307 308 310 313 317 323 321 317 316 314 313 313 311 310 312 312 310 311 310 310 310 309 308 310 315 318 323 317 316 317 319 319 319 319 318 318 319 320 321 321 318 318 317 319 319 321 322
308 306 308 311 314 321 323 318 316 314 313 312 311 310 312 311 311 310 310 309 311 310 312 313 316 323 323 319 318 317 318 318 320 320 320 320 320 322 321 321 318 318 318 317 319 321 321
303 307 306 310 313 316 322 321 316 315 313 312 311 310 312 311 311 311 310 313 318 321 318 321 321 320 318 318 318 318 317 318 320 322 322 321 320 320 319 320 318 319 319 317 318 319 318
304 305 305 307 310 313 320 322 317 315 314 312 310 311 312 312 312 311 311 317 321 323 326 320 319 318 318 317 319 318 317 320 321 320 320 321 321 320 319 319 317 318 318 319 319 319 321
304 305 305 304 306 309 317 321 319 316 314 312 310 311 312 311 312 310 314 316 321 320 328 322 320 319 318 319 318 318 318 320 320 320 321 321 321 321 320 318 318 319 318 321 321 321 322
305 305 303 304 305 307 310 319 320 316 315 312 310 311 312 311 310 316 316 315 316 317 328 320 321 321 320 319 318 318 318 320 319 320 320 323 322 321 319 320 320 321 322 321 322 323 322
304 304 303 304 305 305 307 316 320 317 315 312 310 312 312 312 320 317 323 324 320 326 327 319 318 319 319 318 318 319 319 319 320 320 320 322 322 321 320 322 323 325 322 323 322 323 324
302 304 304 302 304 305 306 309 318 318 315 312 310 312 312 311 313 320 321 327 327 333 324 318 318 318 319 318 317 319 318 319 321 319 321 323 322 322 323 322 322 322 324 324 323 321 324
303 304 304 304 302 303 306 307 315 319 315 312 310 312 311 314 318 321 326 328 331 328 319 318 317 318 318 317 317 318 318 318 319 320 320 322 322 322 322 323 323 322 323 325 324 326 325
302 303 304 304 302 303 305 307 311 318 315 312 310 312 311 315 318 323 328 329 328 320 319 317 317 317 318 318 317 317 318 318 318 321 321 322 324 322 322 323 322 323 322 325 321 322 323
299 303 303 304 303 302 304 307 308 316 315 311 311 311 313 314 316 321 329 332 325 318 319 318 317 318 319 318 318 318 318 318 319 320 321 321 322 321 321 322 321 322 323 323 325 325 325
298 300 302 303 303 303 303 305 308 315 314 310 313 313 315 316 316 323 328 326 322 320 320 318 318 319 321 320 318 318 320 321 323 323 324 322 322 321 322 322 322 323 322 323 321 322 322
298 299 302 302 302 303 304 305 308 314 313 310 315 318 317 319 319 325 328 324 321 322 321 319 318 318 320 320 319 319 320 322 323 323 323 321 321 324 323 323 321 324 322 321 322 325 324
297 298 300 301 301 302 304 305 308 313 313 310 317 321 323 322 322 326 326 322 319 323 325 321 321 319 319 320 320 320 319 320 322 323 322 321 321 324 323 323 323 323 323 323 324 321 322
298 298 299 301 301 302 303 306 309 313 310 313 322 323 325 321 328 335 324 322 320 323 323 323 320 320 320 320 320 320 320 322 322 323 322 324 321 324 324 324 323 321 321 322 321 323 320
297 297 300 301 300 300 302 306 309 313 310 315 321 326 326 325 324 326 325 322 321 323 322 322 320 322 323 324 324 325 325 322 322 322 313 318 322 322 325 324 323 325 322 321 322 324 321
297 299 301 300 300 300 301 305 308 312 310 315 322 322 323 329 328 327 323 321 320 322 323 323 324 322 323 323 325 326 326 323 322 318 320 323 324 323 322 322 321 321 320 321 321 320 323
298 298 299 299 301 300 302 305 308 311 310 315 322 323 322 325 324 324 320 322 320 322 323 325 323 322 322 324 324 323 326 325 325 324 324 322 324 323 324 322 321 320 319 318 318 319 318
297 298 298 299 300 301 301 303 308 312 310 316 321 321 324 325 327 323 325 321 320 323 326 324 323 324 324 326 326 325 325 324 324 326 326 325 326 322 319 318 320 323 322 320 318 318 319
299 299 299 300 300 302 302 302 308 311 310 316 321 322 325 329 327 323 320 320 320 324 325 324 325 325 325 322 322 322 322 321 320 321 323 324 323 322 321 318 326 315 316 315 316 317 317
298 298 299 300 301 302 301 302 307 311 310 316 321 323 323 332 323 320 318 319 320 324 326 325 324 324 322 323 325 325 326 326 321 318 317 318 320 322 329 319 317 316 314 314 316 316 316
298 299 300 301 302 302 302 305 310 310 310 313 324 323 324 327 325 318 318 318 327 328 327 323 321 320 320 327 329 326 325 323 325 324 317 316 318 321 320 330 329 319 315 316 317 316 315
299 300 301 302 302 303 303 306 311 309 310 312 325 320 320 319 319 318 319 319 321 326 328 324 322 321 320 330 334 330 326 321 322 322 323 323 324 327 323 327 322 316 314 316 316 320 317
300 300 301 302 303 304 305 309 309 309 310 311 325 324 321 320 321 321 319 320 320 323 330 325 324 324 325 330 335 330 333 324 323 320 323 322 325 327 324 326 326 313 316 318 321 317 316
300 301 303 303 306 308 310 309 308 310 311 313 325 323 326 324 326 323 322 321 322 323 325 324 325 326 326 329 330 332 327 320 326 326 319 323 322 323 320 321 317 315 315 315 316 316 316
Wind_Speed
21 19 30 25 24 22 20 19 18 16 16 16 16 16 18 17 16 15 14 13 12 11 11 11 10 11 7 7 12 9 2 17 20 14 13 11 11 13 11 12 14 10 3 3 4 5 12
25 22 20 31 26 24 22 20 19 16 16 16 15 16 18 16 16 14 13 12 11 9 10 9 7 6 5 10 2 3 11 17 15 16 13 13 8 8 8 6 10 8 8 5 7 7 13
26 26 23 23 30 26 24 22 20 17 16 17 15 15 18 16 15 13 11 10 9 9 9 7 5 4 8 15 2 5 9 10 11 14 11 10 10 8 3 7 7 5 6 9 9 10 8
24 27 26 25 27 28 26 23 21 20 18 16 16 15 18 15 14 11 7 7 8 8 7 5 2 2 8 4 8 9 10 8 11 13 13 5 7 10 7 4 6 8 9 10 8 15 6
27 25 28 25 26 29 27 25 23 21 19 18 16 16 17 14 13 9 5 7 7 7 5 2 1 4 6 4 9 7 13 7 8 9 8 5 7 8 5 10 7 6 13 13 9 13 9
27 28 27 29 26 28 29 27 25 22 19 18 17 16 16 13 9 6 6 5 8 1 1 2 8 6 10 6 1 3 7 9 5 9 9 7 8 7 8 10 8 16 17 12 13 11 12
33 28 29 30 26 28 29 28 27 24 20 18 17 17 14 10 8 7 4 2 6 6 7 11 4 8 3 5 6 9 7 9 7 12 8 8 2 9 8 12 8 10 6 10 12 5 10
32 32 31 30 32 26 30 30 28 26 21 18 17 16 13 8 7 8 6 8 8 6 8 21 18 11 12 5 6 8 10 10 7 9 4 5 12 6 2 4 4 3 5 12 8 9 7
34 33 32 33 32 31 28 30 28 27 22 18 17 15 11 6 6 8 13 15 2 12 6 10 12 10 7 10 10 12 10 10 12 15 6 10 8 0 4 8 10 4 5 7 10 12 14
36 35 36 34 33 32 29 31 30 28 23 20 18 15 10 10 6 9 9 11 14 5 5 11 8 7 8 7 9 2 4 3 10 7 4 6 8 10 1 3 3 9 2 8 4 12 14
38 37 37 35 34 34 30 29 32 28 25 21 19 16 14 15 4 7 3 0 2 4 5 15 11 6 5 10 13 8 3 5 12 3 5 3 10 11 12 2 5 13 4 6 8 13 7
42 40 37 40 36 33 31 30 34 29 26 22 20 18 13 14 9 10 3 2 4 5 6 8 9 10 11 11 8 12 9 4 3 10 15 9 5 4 7 2 3 4 4 5 7 11 7
40 40 39 37 39 36 33 31 33 30 27 24 22 19 22 13 4 4 6 5 5 11 7 11 14 11 14 10 13 11 14 11 10 11 12 12 10 5 4 6 4 8 8 7 8 6 9
31 40 38 38 39 37 34 31 32 32 28 24 21 19 20 17 11 3 8 7 11 15 11 5 15 13 12 10 13 16 11 15 12 14 11 12 10 12 8 11 4 9 12 7 6 7 11
32 28 40 38 39 37 35 31 32 34 29 25 20 14 11 19 19 5 8 9 14 9 10 10 12 13 12 10 5 14 17 16 16 14 13 9 7 6 1 3 6 5 9 6 5 1 6
36 32 37 39 39 36 36 33 32 36 32 29 19 9 20 15 21 10 8 15 21 3 6 11 15 15 14 14 10 13 13 7 5 4 5 2 3 3 5 4 6 8 3 4 6 5 9
37 34 32 39 40 36 36 35 34 38 36 31 21 6 15 23 23 7 11 17 19 8 8 11 16 12 13 12 14 15 11 7 6 7 6 6 7 6 4 10 10 7 9 7 5 3 4
38 40 31 40 38 36 35 35 35 43 39 33 20 11 22 33 11 11 14 22 9 11 8 8 7 9 12 11 12 11 13 6 8 6 10 4 4 7 11 5 5 10 8 10 5 6 2
33 35 35 40 40 35 32 33 37 46 47 32 13 8 16 26 13 12 19 23 13 11 11 12 11 8 9 10 10 11 9 5 3 7 4 6 7 7 7 6 8 9 10 9 4 1 7
32 36 40 38 37 36 34 33 38 51 49 33 12 10 6 9 16 19 23 21 18 8 8 12 12 9 10 7 6 8 8 4 4 3 3 1 11 10 10 5 3 11 13 11 12 7 9
31 31 37 38 40 37 36 34 38 52 51 27 13 12 14 16 18 20 23 18 22 13 10 13 11 15 12 8 9 7 9 6 5 5 5 4 8 12 14 6 6 9 9 12 16 16 14
27 31 30 30 32 36 37 31 45 52 51 22 11 12 14 18 24 19 21 23 24 19 15 15 11 16 13 9 11 10 11 9 7 9 8 5 4 2 5 8 8 11 12 14 14 16 17
31 30 30 28 32 33 37 34 43 50 52 16 15 10 13 16 24 18 17 21 23 16 2 4 13 9 11 6 7 9 9 4 3 7 9 5 4 4 3 4 5 6 15 16 17 16 13
28 27 26 29 31 32 38 39 45 55 58 26 13 7 10 14 17 18 21 20 20 16 10 5 7 9 6 13 13 11 11 8 6 5 4 5 4 2 1 1 1 2 1 4 7 13 15
27 27 27 30 35 35 33 40 50 56 59 30 12 9 7 5 14 24 21 21 16 10 11 11 5 4 16 8 4 4 2 2 2 3 3 3 4 2 2 6 8 11 6 1 3 6 9
29 29 31 33 30 32 36 39 55 52 60 34 16 10 9 9 12 22 19 19 11 11 7 4 8 8 3 2 2 5 5 5 5 6 2 3 1 4 3 3 4 4 4 1 1 5 8
28 30 30 31 33 32 34 43 48 51 53 39 6 12 8 8 14 14 15 14 13 10 6 7 7 4 3 2 2 3 4 2 5 5 4 3 2 5 6 3 5 2 2 2 5 3 7
28 27 30 34 30 47 47 45 44 47 48 45 6 5 7 6 7 3 7 12 13 12 7 9 7 2 3 3 3 3 1 4 2 2 5 6 6 3 3 3 5 5 6 1 5 6 7
28 32 32 35 41 41 42 40 43 45 42 42 5 4 8 4 6 5 5 6 2 7 7 12 4 10 7 4 1 2 2 2 0 3 3 4 4 1 6 1 4 4 4 5 5 8 8
Wind_Direction
273 268 260 261 263 265 267 271 273 283 273 289 297 295 301 304 307 308 313 312 303 298 297 303 314 322 338 238 256 21 89 160 174 194 217 205 212 224 229 209 199 228 219 206 255 141 151
267 271 267 259 260 263 262 265 270 280 270 284 292 293 297 304 303 308 312 307 296 293 294 301 318 353 272 258 58 95 132 154 179 193 214 215 233 257 275 216 212 199 259 245 184 176 177
267 266 271 263 257 259 261 262 265 267 269 278 287 290 296 302 300 302 305 298 287 284 284 295 315 347 262 246 3 168 159 191 204 211 210 230 253 247 282 223 247 254 234 188 185 175 168
271 264 267 265 257 253 256 257 259 262 266 273 284 286 293 296 292 298 298 288 277 279 279 294 324 302 268 238 255 220 215 235 228 225 255 314 272 273 274 354 222 219 241 189 176 186 173
270 266 259 268 261 256 252 254 254 257 262 269 276 281 291 292 289 294 283 266 262 253 260 31 337 245 265 198 232 232 219 236 195 207 221 272 236 245 202 247 190 206 205 186 150 195 175
266 266 260 260 259 253 252 250 250 252 255 263 270 273 286 285 283 282 253 239 280 98 24 238 262 266 252 221 166 180 183 172 165 158 173 207 207 226 227 221 174 213 227 158 161 175 196
259 260 258 257 259 254 252 246 247 248 252 257 263 269 281 273 271 237 198 214 217 196 206 233 157 260 117 331 207 215 173 180 146 190 194 196 105 258 212 210 276 232 192 154 111 150 214
256 253 256 252 256 252 251 248 246 245 246 251 256 266 274 268 240 215 220 246 345 355 289 220 251 263 274 280 235 198 193 192 192 260 152 217 222 200 251 208 261 265 239 117 125 174 252
249 249 254 252 252 251 251 247 243 243 244 244 247 257 261 235 196 213 222 231 343 357 254 187 222 244 237 192 229 184 218 192 232 209 174 277 344 202 174 195 220 234 243 155 177 186 229
247 243 248 250 248 250 248 246 241 239 239 240 238 243 235 179 185 222 231 242 253 276 260 160 201 210 189 231 210 350 259 297 188 291 24 134 273 241 113 294 268 244 138 210 201 191 214
249 240 244 246 248 246 244 243 242 236 234 233 232 233 228 193 343 203 51 138 183 185 245 153 152 118 158 214 169 171 217 219 218 140 241 35 189 199 206 82 296 118 222 199 201 229 221
251 241 237 242 244 245 243 241 240 232 229 229 227 226 209 206 251 235 293 43 148 242 227 166 160 183 185 211 217 145 177 234 11 189 226 255 306 305 57 109 272 130 172 217 246 262 269
244 237 233 232 240 242 241 236 235 228 223 222 220 220 198 190 197 203 235 183 193 230 151 161 185 180 195 175 189 204 186 202 204 189 244 184 189 118 195 144 158 217 225 233 216 237 247
253 235 230 227 232 236 238 234 232 226 219 215 215 211 215 211 237 281 200 202 231 217 198 149 179 188 200 164 195 207 209 212 216 251 228 200 188 178 172 263 297 211 270 251 283 270 260
254 244 228 224 230 231 233 232 229 226 211 203 194 196 227 228 212 243 215 205 219 219 185 174 193 190 196 175 229 205 220 225 198 220 255 230 135 132 235 239 273 186 244 328 304 311 279
240 246 229 223 223 225 228 229 226 223 200 192 178 193 227 199 190 201 219 222 229 252 225 191 191 198 190 193 203 200 193 215 172 248 292 334 263 175 126 217 210 268 32 218 228 254 256
231 235 235 223 221 220 223 223 222 217 194 192 189 209 199 168 164 206 211 208 233 187 206 204 207 193 218 190 201 194 201 144 201 184 241 268 249 151 170 213 236 179 231 235 304 287 281
225 230 240 220 221 218 220 218 218 209 191 180 195 211 156 152 184 200 212 213 221 184 199 221 280 194 225 195 207 223 225 222 169 194 211 200 258 236 240 88 307 294 267 212 228 216 215
224 225 235 217 217 216 219 217 213 202 186 172 197 173 169 185 196 196 211 219 201 201 196 200 203 212 216 204 206 225 217 74 186 214 230 187 231 229 235 213 219 238 230 243 231 326 242
225 229 218 212 212 211 223 217 210 198 184 184 191 171 156 200 216 198 205 207 207 211 206 198 205 175 190 194 207 193 188 158 186 198 357 63 244 229 245 303 331 206 239 221 215 227 247
225 228 198 207 210 208 219 218 206 195 184 193 208 196 175 182 197 212 206 200 203 182 223 198 193 204 199 205 189 205 182 160 182 154 190 238 240 240 261 294 294 287 266 229 235 240 252
212 212 207 207 208 208 208 211 205 192 186 204 213 196 176 170 191 206 199 215 203 190 182 197 219 203 206 198 207 211 199 193 186 181 197 193 228 290 253 244 269 271 262 257 251 251 257
212 211 211 213 208 207 204 216 205 192 187 201 243 192 174 163 189 199 200 212 202 176 207 252 211 169 195 92 60 34 65 54 122 177 193 183 171 190 254 338 307 288 242 246 251 251 256
208 214 218 211 207 193 197 218 203 199 192 201 218 181 170 175 186 195 195 209 205 175 168 151 174 173 105 125 99 80 82 87 96 68 153 167 181 168 268 234 287 282 49 303 277 273 264
212 216 217 208 202 201 207 214 202 199 196 218 241 224 169 151 183 194 190 205 203 144 140 129 57 77 154 153 123 128 105 85 120 84 131 217 165 153 183 225 294 285 181 265 242 293 16
215 217 207 206 196 204 208 209 197 199 200 211 256 247 159 148 193 187 192 202 159 144 135 95 128 104 144 123 141 193 199 218 161 152 131 97 144 230 166 224 237 74 79 107 230 251 41
215 203 204 205 208 194 204 200 193 196 201 205 267 223 181 164 167 176 197 197 189 175 132 135 162 163 266 111 121 186 202 310 187 194 187 139 213 213 204 251 283 39 157 214 241 40 4
202 203 207 191 193 206 200 195 192 193 199 202 258 239 201 136 117 173 197 186 204 201 161 136 141 154 161 155 178 175 150 195 216 204 181 181 173 186 181 207 264 134 142 274 19 321 334
203 200 194 192 188 184 186 187 188 193 198 199 251 99 89 109 86 91 62 34 351 257 202 175 209 152 174 161 94 114 133 51 222 235 176 215 226 250 211 228 106 197 335 326 312 308 315